Avalon Airport, Australia

8:18 PM AEDT on February 21, 2017 (GMT +1100)
Avalon

Weather History for YMAV - December, 2013

Change the Weather History Date:

Monday, December 2, 2013

  Actual Average Record
Temperature  
Mean Temperature 77 °F -  
Max Temperature 97 °F - - ()
Min Temperature 57 °F - - ()
Cooling Degree Days 12    
Growing Degree Days 27 (Base 50)    
Moisture  
Dew Point 50 °F    
Average Humidity 46    
Maximum Humidity 88    
Minimum Humidity 9    
Precipitation  
Precipitation 0.00 in - - ()
Sea Level Pressure  
Sea Level Pressure 29.92 in    
Wind  
Wind Speed 8 mph ()    
Max Wind Speed 26 mph    
Max Gust Speed 24 mph    
Visibility 6.2 miles    
Events      
T = Trace of Precipitation, MM = Missing Value Source: Averaged Metar Reports

Daily Weather History Graph

Daily Weather History Graph

Search for Another Location

Airport or City:

Trip Planner

Search our weather history database for the weather conditions in past years. The results will help you decide how hot, cold, wet, or windy it might be!

Date:

Astronomy

Dec. 02, 2013 Rise Set
Actual Time 5:53 AM AEDT 8:30 PM AEDT
Civil Twilight 5:22 AM AEDT 9:00 PM AEDT
Nautical Twilight 4:44 AM AEDT 9:39 PM AEDT
Astronomical Twilight 4:01 AM AEDT 10:22 PM AEDT
Moon 5:06 AM AEDT (12/2) 7:34 PM AEDT (12/2)
Length of Visible Light 15h 38m
Length of Day
14h 36m
Waning Crescent, 1% of the Moon is Illuminated
Dec 2
Waning Crescent
Dec 3
New
Dec 10
First Quarter
Dec 17
Full
Dec 26
Last Quarter

Hourly Weather History & Observations

Time (AEDT) Temp. Heat Index Dew Point Humidity Pressure Visibility Wind Dir Wind Speed Gust Speed Precip Events Conditions
12:00 AM 73 °F - 45 °F 26% 29.96 in - NNW 4.6 mph - -   Overcast
12:00 AM 73.4 °F - 44.6 °F 36% 29.95 in 6.2 mi NNW 4.6 mph - N/A   Overcast
12:30 AM 73.4 °F - 46.4 °F 38% 29.95 in 6.2 mi West 9.2 mph - N/A   Overcast
1:00 AM 71.6 °F - 46.4 °F 41% 29.95 in 6.2 mi West 9.2 mph - N/A   Overcast
1:30 AM 71.6 °F - 48.2 °F 43% 29.95 in 6.2 mi WNW 5.8 mph - N/A   Overcast
2:00 AM 69.8 °F - 48.2 °F 46% 29.95 in 6.2 mi NW 5.8 mph - N/A   Overcast
2:30 AM 69.8 °F - 48.2 °F 46% 29.95 in 6.2 mi NNW 8.1 mph - N/A   Overcast
3:00 AM 68 °F - 46 °F 34% 29.96 in - NNW 3.5 mph - -  
3:00 AM 68.0 °F - 46.4 °F 46% 29.95 in 6.2 mi NNW 3.5 mph - N/A   Mostly Cloudy
3:30 AM 68.0 °F - 44.6 °F 43% 29.95 in 6.2 mi NNW 6.9 mph - N/A   Scattered Clouds
4:00 AM 64.4 °F - 48.2 °F 56% 29.95 in 6.2 mi NNW 6.9 mph - N/A   Overcast
4:30 AM 64.4 °F - 46.4 °F 52% 29.95 in 6.2 mi NNW 3.5 mph - N/A   Scattered Clouds
5:00 AM 64.4 °F - 48.2 °F 56% 29.95 in 6.2 mi West 4.6 mph - N/A   Unknown
5:30 AM 59.0 °F - 46.4 °F 63% 29.95 in 6.2 mi ESE 4.6 mph - N/A   Scattered Clouds
6:00 AM 59 °F - 48 °F 57% 29.97 in - Calm Calm - -  
6:00 AM 59.0 °F - 48.2 °F 67% 29.95 in 6.2 mi Calm Calm - N/A   Scattered Clouds
6:30 AM 60.8 °F - 50.0 °F 68% 29.98 in 6.2 mi North 5.8 mph - N/A   Scattered Clouds
7:00 AM 66.2 °F - 51.8 °F 60% 29.98 in 6.2 mi North 2.3 mph - N/A   Mostly Cloudy
7:30 AM 68.0 °F - 51.8 °F 56% 29.98 in 6.2 mi WNW 3.5 mph - N/A   Unknown
8:00 AM 71.6 °F - 51.8 °F 50% 29.98 in 6.2 mi WSW 3.5 mph - N/A   Unknown
8:30 AM 78.8 °F - 50.0 °F 36% 29.98 in 6.2 mi East 2.3 mph - N/A   Unknown
9:00 AM 80 °F - 46 °F 20% 29.99 in - NNE 4.6 mph - -  
9:00 AM 80.6 °F - 46.4 °F 30% 29.98 in 6.2 mi NNE 4.6 mph - N/A   Unknown
9:30 AM 84.2 °F - 48.2 °F 29% 29.98 in 6.2 mi North 4.6 mph - N/A   Unknown
10:00 AM 84.2 °F - 51.8 °F 33% 29.98 in 6.2 mi South 8.1 mph - N/A   Unknown
10:30 AM 86.0 °F 84.2 °F 53.6 °F 33% 29.95 in 6.2 mi South 8.1 mph - N/A   Unknown
11:00 AM 87.8 °F - 51.8 °F 29% 29.95 in 6.2 mi SSE 5.8 mph - N/A   Unknown
11:30 AM 91.4 °F - 42.8 °F 18% 29.92 in 6.2 mi NW 13.8 mph - N/A   Unknown
12:00 PM 93 °F - 42 °F 9% 29.93 in - North 13.8 mph - -  
12:00 PM 93.2 °F - 41.0 °F 16% 29.92 in 6.2 mi North 13.8 mph - N/A   Unknown
12:30 PM 95.0 °F - 41.0 °F 15% 29.92 in 6.2 mi NNW 12.7 mph 24.2 mph N/A   Unknown
1:00 PM 95.0 °F - 41.0 °F 15% 29.89 in 6.2 mi North 9.2 mph - N/A   Unknown
1:30 PM 93.2 °F - 42.8 °F 17% 29.89 in 6.2 mi NW 9.2 mph - N/A   Unknown
2:00 PM 96.8 °F - 44.6 °F 17% 29.86 in 6.2 mi North 17.3 mph - N/A   Unknown
2:30 PM 95.0 °F - 46.4 °F 19% 29.86 in 6.2 mi NW 10.4 mph - N/A   Unknown
3:00 PM 97 °F - 45 °F 9% 29.86 in - NNW 15.0 mph - -  
3:00 PM 96.8 °F - 44.6 °F 17% 29.86 in 6.2 mi NNW 15.0 mph - N/A   Mostly Cloudy
3:30 PM 96.8 °F - 48.2 °F 19% 29.83 in 6.2 mi North 10.4 mph 23.0 mph N/A   Mostly Cloudy
4:02 PM 86.0 °F 84.2 °F 53.6 °F 33% 29.86 in 6.2 mi SW 18.4 mph - N/A   Overcast
4:11 PM 78.8 °F - 57.2 °F 47% 29.86 in 6.2 mi South 26.5 mph - N/A   Overcast
4:30 PM 77.0 °F - 59.0 °F 54% 29.86 in 6.2 mi South 24.2 mph - N/A   Mostly Cloudy
5:00 PM 73.4 °F - 57.2 °F 57% 29.83 in 6.2 mi South 25.3 mph - N/A   Scattered Clouds
5:30 PM 73.4 °F - 55.4 °F 53% 29.86 in 6.2 mi South 24.2 mph - N/A   Mostly Cloudy
6:00 PM 71 °F - 55 °F 47% 29.86 in - South 25.3 mph - -  
6:00 PM 69.8 °F - 55.4 °F 60% 29.83 in 6.2 mi South 25.3 mph - N/A   Scattered Clouds
6:30 PM 71.6 °F - 55.4 °F 57% 29.86 in 6.2 mi South 23.0 mph - N/A   Scattered Clouds
7:00 PM 68.0 °F - 55.4 °F 64% 29.86 in 6.2 mi South 21.9 mph - N/A   Scattered Clouds
7:30 PM 69.8 °F - 55.4 °F 60% 29.86 in 6.2 mi South 19.6 mph - N/A   Unknown
8:00 PM 68.0 °F - 53.6 °F 60% 29.86 in 6.2 mi South 17.3 mph - N/A   Mostly Cloudy
8:30 PM 64.4 °F - 57.2 °F 77% 29.89 in 6.2 mi SSW 12.7 mph - N/A   Unknown
9:00 PM 64 °F - 57 °F 71% 29.90 in - SSW 10.4 mph - -  
9:00 PM 64.4 °F - 57.2 °F 77% 29.89 in 6.2 mi SSW 10.4 mph - N/A   Overcast
9:30 PM 62.6 °F - 57.2 °F 82% 29.89 in 6.2 mi SW 11.5 mph - N/A   Mostly Cloudy
10:00 PM 62.6 °F - 57.2 °F 82% 29.92 in 6.2 mi SW 11.5 mph - N/A   Scattered Clouds
10:30 PM 62.6 °F - 57.2 °F 82% 29.92 in 6.2 mi SW 12.7 mph - N/A   Unknown
11:00 PM 62.6 °F - 59.0 °F 88% 29.92 in 6.2 mi SW 10.4 mph - N/A   Mostly Cloudy
11:30 PM 60.8 °F - 57.2 °F 88% 29.92 in 6.2 mi SW 8.1 mph - N/A   Mostly Cloudy
11:56 PM 60.8 °F - 57.2 °F 88% 29.92 in 6.2 mi SW 8.1 mph - N/A   Mostly Cloudy